Location: Treviso
(45.6669°N, 12.2430°E)
Time: 23:03:51
(UTC+01:00)

ISS - Pass Details

Date: 27 November 2023
Orbit: 415 x 417 km, 51.6° (Epoch: 06 December)

Event Time Altitude Azimuth Distance (km) Brightness Sun altitude
Rises 18:15:54 0° 293° (WNW) 2,362 1.0 -17.9°
Reaches altitude 10° 18:18:09 10° 304° (NW) 1,498 -0.4 -18.3°
Enters shadow 18:21:02 30° 3° (N) 774 -2.6 -18.8°
